International Skating Union - Official Site

ISU World Cup Speed Skating Salt lake City
December 8-11, 2017

Draw | Lap Times | Index | World Cup

Referee: Rick  HUNT  (CAN)
Starter: Garth  LINDER  (USA)
StartTime: EndTime: Air Temp: Ice Temp: Humidity:
14:09 15:07 15.8 ℃ -9.6 ℃ 20.1%
Result Team Pursuit Men
Rankings as of Dec 8 2017 6:22PM
Rank: No.: Team: Nation: Time: Behind: Points:
Total 11
1 4 Canada (22) Denny Morrison (11) Ted-Jan Bloemen (14) Benjamin Donnelly (10) Jordan Belchos CAN CAN 3:36.440.5 - 17.81 - (17.8)
1.0 - 31.07 - (13.2)
1.5 - 44.25 - (13.1)
2.0 - 57.30 - (13.0)
2.5 - 1:10.37 - (13.0)
3.0 - 1:23.60 - (13.2)
3.5 - 1:36.73 - (13.1)
4.0 - 1:49.83 - (13.0)
4.5 - 2:03.00 - (13.1)
5.0 - 2:16.37 - (13.3)
5.5 - 2:29.64 - (13.2)
6.0 - 2:43.09 - (13.4)
6.5 - 2:56.35 - (13.2)
7.0 - 3:09.60 - (13.2)
7.5 - 3:22.97 - (13.3)
8.0 - 3:36.44 - (13.4)
100
2 11 Italy (63) Andrea Giovannini (66) Nicola Tumolero (61) Riccardo Bugari (64) Michele Malfatti ITA ITA 3:36.540.5 - 17.68 - (17.6)
1.0 - 30.83 - (13.1)
1.5 - 43.74 - (12.9)
2.0 - 56.72 - (12.9)
2.5 - 1:10.05 - (13.3)
3.0 - 1:23.24 - (13.1)
3.5 - 1:36.46 - (13.2)
4.0 - 1:49.74 - (13.2)
4.5 - 2:02.96 - (13.2)
5.0 - 2:16.21 - (13.2)
5.5 - 2:29.69 - (13.4)
6.0 - 2:43.00 - (13.3)
6.5 - 2:56.40 - (13.4)
7.0 - 3:09.91 - (13.5)
7.5 - 3:23.14 - (13.2)
8.0 - 3:36.54 - (13.4)
0.10 80
3 16 New Zealand (122) Reyon Kay (121) Shane Dobbin (123) Peter Michael (124) Josh Whyte NZL NZL 3:36.790.5 - 18.25 - (18.2)
1.0 - 31.56 - (13.3)
1.5 - 44.59 - (13.0)
2.0 - 57.71 - (13.1)
2.5 - 1:10.94 - (13.2)
3.0 - 1:24.23 - (13.2)
3.5 - 1:37.78 - (13.5)
4.0 - 1:50.94 - (13.1)
4.5 - 2:04.08 - (13.1)
5.0 - 2:17.11 - (13.0)
5.5 - 2:30.34 - (13.2)
6.0 - 2:43.58 - (13.2)
6.5 - 2:56.85 - (13.2)
7.0 - 3:10.15 - (13.3)
7.5 - 3:23.43 - (13.2)
8.0 - 3:36.79 - (13.3)
0.35 70
4 12 Japan (78) Shane Williamson (69) Seitaro Ichinohe (73) Shota Nakamura (77) Ryosuke Tsuchiya JPN JPN 3:37.080.5 - 17.72 - (17.7)
1.0 - 31.03 - (13.3)
1.5 - 44.20 - (13.1)
2.0 - 57.34 - (13.1)
2.5 - 1:10.45 - (13.1)
3.0 - 1:23.64 - (13.1)
3.5 - 1:36.75 - (13.1)
4.0 - 1:49.97 - (13.2)
4.5 - 2:03.13 - (13.1)
5.0 - 2:16.33 - (13.2)
5.5 - 2:29.67 - (13.3)
6.0 - 2:43.04 - (13.3)
6.5 - 2:56.62 - (13.5)
7.0 - 3:10.29 - (13.6)
7.5 - 3:23.65 - (13.3)
8.0 - 3:37.08 - (13.4)
0.64 60
5 23 USA (164) Joey Mantia (161) Brian Hansen (163) Emery Lehman (159) Jonathan Garcia USA USA 3:37.970.5 - 17.71 - (17.7)
1.0 - 30.94 - (13.2)
1.5 - 44.20 - (13.2)
2.0 - 57.50 - (13.2)
2.5 - 1:10.96 - (13.4)
3.0 - 1:24.30 - (13.3)
3.5 - 1:37.69 - (13.3)
4.0 - 1:51.09 - (13.4)
4.5 - 2:04.76 - (13.6)
5.0 - 2:18.12 - (13.3)
5.5 - 2:31.28 - (13.1)
6.0 - 2:44.47 - (13.1)
6.5 - 2:57.66 - (13.1)
7.0 - 3:10.88 - (13.2)
7.5 - 3:24.40 - (13.5)
8.0 - 3:37.97 - (13.5)
1.53 50
6 17 Norway (119) Sverre Lunde Pedersen (118) Simen Spieler Nilsen (115) Allan Dahl Johansson (112) Håvard Bøkko NOR NOR 3:39.300.5 - 17.60 - (17.6)
1.0 - 30.74 - (13.1)
1.5 - 43.65 - (12.9)
2.0 - 56.57 - (12.9)
2.5 - 1:09.61 - (13.0)
3.0 - 1:22.75 - (13.1)
3.5 - 1:36.04 - (13.2)
4.0 - 1:49.28 - (13.2)
4.5 - 2:02.62 - (13.3)
5.0 - 2:16.26 - (13.6)
5.5 - 2:29.59 - (13.3)
6.0 - 2:42.91 - (13.3)
6.5 - 2:56.63 - (13.7)
7.0 - 3:10.64 - (14.0)
7.5 - 3:24.88 - (14.2)
8.0 - 3:39.30 - (14.4)
2.86 45
7 14 Korea (93) Min Seok Kim (89) Jaewon Chung (95) Seung-Hoon Lee (91) Hyong-Jun Joo KOR KOR 3:40.960.5 - 18.04 - (18.0)
1.0 - 31.23 - (13.1)
1.5 - 44.45 - (13.2)
2.0 - 57.78 - (13.3)
2.5 - 1:11.14 - (13.3)
3.0 - 1:24.56 - (13.4)
3.5 - 1:37.69 - (13.1)
4.0 - 1:50.91 - (13.2)
4.5 - 2:04.34 - (13.4)
5.0 - 2:17.87 - (13.5)
5.5 - 2:31.61 - (13.7)
6.0 - 2:45.65 - (14.0)
6.5 - 2:59.79 - (14.1)
7.0 - 3:13.80 - (14.0)
7.5 - 3:27.23 - (13.4)
8.0 - 3:40.96 - (13.7)
4.52 40
8 18 Poland (129) Konrad Niedzwiedzki (131) Jan Szymanski (125) Zbigniew Bródka (133) Adrian Wielgat POL POL 3:41.160.5 - 18.06 - (18.0)
1.0 - 31.54 - (13.4)
1.5 - 45.05 - (13.5)
2.0 - 58.30 - (13.2)
2.5 - 1:11.69 - (13.3)
3.0 - 1:24.96 - (13.2)
3.5 - 1:38.41 - (13.4)
4.0 - 1:52.16 - (13.7)
4.5 - 2:05.85 - (13.6)
5.0 - 2:19.53 - (13.6)
5.5 - 2:33.33 - (13.8)
6.0 - 2:46.71 - (13.3)
6.5 - 2:59.97 - (13.2)
7.0 - 3:13.32 - (13.3)
7.5 - 3:26.95 - (13.6)
8.0 - 3:41.16 - (14.2)
4.72 35
9 20 Russia (142) Danila Semerikov (143) Danil Sinitsyn (141) Alexander Rumyantsev (135) Sergey Gryaztsov RUS RUS 3:41.330.5 - 17.80 - (17.8)
1.0 - 30.97 - (13.1)
1.5 - 44.07 - (13.1)
2.0 - 57.18 - (13.1)
2.5 - 1:10.43 - (13.2)
3.0 - 1:23.67 - (13.2)
3.5 - 1:37.05 - (13.3)
4.0 - 1:50.65 - (13.6)
4.5 - 2:04.15 - (13.5)
5.0 - 2:17.72 - (13.5)
5.5 - 2:31.25 - (13.5)
6.0 - 2:45.06 - (13.8)
6.5 - 2:58.98 - (13.9)
7.0 - 3:12.96 - (13.9)
7.5 - 3:27.23 - (14.2)
8.0 - 3:41.33 - (14.0)
4.89 30
10 15 Netherlands (99) Marcel Bosker (100) Bob de Vries (108) Simon Schouten (109) Lucas van Alphen NED NED 3:42.460.5 - 18.50 - (18.5)
1.0 - 31.78 - (13.2)
1.5 - 44.99 - (13.2)
2.0 - 58.42 - (13.4)
2.5 - 1:11.94 - (13.5)
3.0 - 1:25.15 - (13.2)
3.5 - 1:38.34 - (13.1)
4.0 - 1:51.50 - (13.1)
4.5 - 2:04.91 - (13.4)
5.0 - 2:18.71 - (13.8)
5.5 - 2:32.75 - (14.0)
6.0 - 2:46.86 - (14.1)
6.5 - 3:00.86 - (14.0)
7.0 - 3:14.72 - (13.8)
7.5 - 3:28.52 - (13.8)
8.0 - 3:42.46 - (13.9)
6.02 25
11 5 China (25) Alemasi Kahanbai (32) Aerchenghazi Xiakaini (29) Dasituer Tuersonghan (28) Hanyang Shen CHN CHN 3:45.790.5 - 18.17 - (18.1)
1.0 - 31.65 - (13.4)
1.5 - 44.80 - (13.1)
2.0 - 58.10 - (13.3)
2.5 - 1:11.70 - (13.6)
3.0 - 1:25.16 - (13.4)
3.5 - 1:38.68 - (13.5)
4.0 - 1:52.63 - (13.9)
4.5 - 2:06.43 - (13.8)
5.0 - 2:20.21 - (13.7)
5.5 - 2:34.34 - (14.1)
6.0 - 2:48.22 - (13.8)
6.5 - 3:02.63 - (14.4)
7.0 - 3:16.86 - (14.2)
7.5 - 3:31.32 - (14.4)
8.0 - 3:45.79 - (14.4)
9.35 21